Location: Murphys Corner
(39.1062°N, 77.8244°W)
Time: 20:07:10
(UTC+00:00)

Envisat - Pass Details

Date: 10 February 2023
Orbit: 763 x 765 km, 98.2° (Epoch: 24 March)

Event Time Altitude Azimuth Distance (km) Brightness Sun altitude
Rises 09:42:45 0° 7° (N) 3,239 6.4 -28.8°
Reaches altitude 10° 09:45:06 10° 2° (N) 2,308 5.5 -28.4°
Enters shadow 09:46:12 16° 358° (N) 1,897 5.0 -28.2°
